When you browse on this site, cookies collect data to enhance your experience and personalize the content and advertising you see.
Visit our Privacy Policy to learn more. By continuing to use the site, you agree to this use of cookies and data.
  • In Belgium
  • List of Countries
  • For 7 days
  • Water Temperature
  • Satellite Maps
  • Weather Map
  • Weather Widgets
  • user-avatar
    Login

    Hourly Weather Novoe-Hamidie

    Today, 10 December, Monday

    Time Temperature Precipitation Wind Pressure Humidity
    00:00 +2°C° 0 mm 3 mps 740 mmHg 86%
    01:00 +2°C° 0 mm 3 mps 739 mmHg 86%
    02:00 +2°C° 0 mm 3 mps 739 mmHg 87%
    03:00 +3°C° 0 mm 2 mps 739 mmHg 88%
    04:00 +3°C° 0 mm 2 mps 739 mmHg 88%
    05:00 +3°C° 0 mm 2 mps 739 mmHg 88%
    06:00 +3°C° 0 mm 2 mps 738 mmHg 88%
    07:00 +3°C° 0 mm 2 mps 738 mmHg 87%
    08:00 +3°C° 0 mm 2 mps 738 mmHg 86%
    09:00 +3°C° 0 mm 2 mps 738 mmHg 86%
    10:00 +4°C° 0 mm 2 mps 737 mmHg 83%
    11:00 +5°C° 0 mm 2 mps 736 mmHg 80%
    12:00 +6°C° 0 mm 2 mps 736 mmHg 77%
    13:00 +6°C° 0 mm 2 mps 736 mmHg 76%
    14:00 +6°C° 0 mm 2 mps 736 mmHg 75%
    15:00 +7°C° 0 mm 2 mps 735 mmHg 74%
    16:00 +6°C° 0 mm 2 mps 736 mmHg 79%
    17:00 +5°C° 0 mm 2 mps 736 mmHg 83%
    18:00 +6°C° 0 mm 1 mps 736 mmHg 87%
    19:00 +6°C° 0 mm 1 mps 736 mmHg 87%
    20:00 +6°C° 0 mm 1 mps 736 mmHg 88%
    21:00 +6°C° 0 mm 1 mps 736 mmHg 88%
    22:00 +6°C° 0 mm 1 mps 736 mmHg 88%
    23:00 +6°C° 0 mm 1 mps 736 mmHg 88%

    Tomorrow, 11 December, Tuesday

    Time Temperature Precipitation Wind Pressure Humidity
    00:00 +6°C° 0 mm 1 mps 736 mmHg 89%
    01:00 +6°C° 0 mm 1 mps 736 mmHg 89%
    02:00 +5°C° 0 mm 1 mps 736 mmHg 89%
    03:00 +5°C° 0 mm 1 mps 736 mmHg 89%
    04:00 +5°C° 0 mm 1 mps 736 mmHg 89%
    05:00 +5°C° 0 mm 1 mps 736 mmHg 89%
    06:00 +5°C° 0 mm 1 mps 735 mmHg 89%
    07:00 +5°C° 0 mm 1 mps 735 mmHg 89%
    08:00 +5°C° 0 mm 1 mps 735 mmHg 88%
    09:00 +6°C° 0 mm 1 mps 735 mmHg 87%
    10:00 +7°C° 0 mm 1 mps 734 mmHg 83%
    11:00 +8°C° 0 mm 1 mps 733 mmHg 78%
    12:00 +8°C° 0 mm 2 mps 732 mmHg 74%
    13:00 +8°C° 0 mm 2 mps 732 mmHg 73%
    14:00 +8°C° 0 mm 2 mps 732 mmHg 72%
    15:00 +8°C° 0 mm 2 mps 731 mmHg 72%
    16:00 +8°C° 0 mm 2 mps 731 mmHg 76%
    17:00 +8°C° 0 mm 1 mps 731 mmHg 81%
    18:00 +7°C° 0 mm 1 mps 730 mmHg 85%
    19:00 +7°C° 0 mm 1 mps 730 mmHg 85%
    20:00 +7°C° 0 mm 1 mps 730 mmHg 85%
    21:00 +7°C° 0 mm 1 mps 730 mmHg 85%
    22:00 +6°C° 0.1 mm 2 mps 731 mmHg 86%
    23:00 +6°C° 0.1 mm 2 mps 731 mmHg 88%

    Day after tomorrow, 12 December, Wednesday

    Time Temperature Precipitation Wind Pressure Humidity
    00:00 +6°C° 0.1 mm 2 mps 732 mmHg 89%
    01:00 +6°C° 0.1 mm 2 mps 733 mmHg 90%
    02:00 +6°C° 0.1 mm 2 mps 734 mmHg 90%
    03:00 +6°C° 0.1 mm 2 mps 734 mmHg 90%
    04:00 +6°C° 0.4 mm 2 mps 735 mmHg 90%
    05:00 +6°C° 0.4 mm 2 mps 735 mmHg 91%
    06:00 +6°C° 0.4 mm 2 mps 736 mmHg 91%
    07:00 +7°C° 0.2 mm 1 mps 736 mmHg 90%
    08:00 +8°C° 0.2 mm 1 mps 737 mmHg 90%
    09:00 +8°C° 0.2 mm 1 mps 738 mmHg 89%
    10:00 +8°C° 0 mm 2 mps 737 mmHg 81%
    11:00 +9°C° 0 mm 3 mps 737 mmHg 73%
    12:00 +9°C° 0 mm 5 mps 737 mmHg 65%
    13:00 +10°C° 0 mm 4 mps 736 mmHg 63%
    14:00 +10°C° 0 mm 4 mps 736 mmHg 62%
    15:00 +10°C° 0 mm 4 mps 735 mmHg 60%
    16:00 +8°C° 0 mm 4 mps 735 mmHg 64%
    17:00 +8°C° 0 mm 3 mps 736 mmHg 69%
    18:00 +8°C° 0 mm 2 mps 736 mmHg 74%
    19:00 +7°C° 0.1 mm 2 mps 736 mmHg 77%
    20:00 +7°C° 0.1 mm 2 mps 736 mmHg 80%
    21:00 +6°C° 0.1 mm 2 mps 735 mmHg 83%
    22:00 +6°C° 0.3 mm 2 mps 735 mmHg 85%
    23:00 +6°C° 0.3 mm 2 mps 735 mmHg 86%

    13 December, Thursday

    Time Temperature Precipitation Wind Pressure Humidity
    00:00 +6°C° 0.3 mm 2 mps 735 mmHg 88%
    01:00 +5°C° 0.5 mm 2 mps 735 mmHg 89%
    02:00 +5°C° 0.5 mm 2 mps 736 mmHg 91%
    03:00 +6°C° 0.5 mm 1 mps 736 mmHg 92%
    04:00 +6°C° 0.5 mm 1 mps 736 mmHg 93%
    05:00 +6°C° 0.5 mm 1 mps 736 mmHg 93%
    06:00 +6°C° 0.5 mm 1 mps 737 mmHg 94%
    07:00 +5°C° 0.9 mm 2 mps 737 mmHg 94%
    08:00 +5°C° 0.9 mm 2 mps 738 mmHg 93%
    09:00 +4°C° 0.9 mm 3 mps 739 mmHg 93%
    10:00 +4°C° 0.7 mm 3 mps 739 mmHg 89%
    11:00 +4°C° 0.7 mm 4 mps 739 mmHg 84%
    12:00 +5°C° 0.7 mm 4 mps 740 mmHg 80%
    13:00 +5°C° 0.2 mm 4 mps 740 mmHg 78%
    14:00 +5°C° 0.2 mm 4 mps 741 mmHg 76%
    15:00 +5°C° 0.2 mm 4 mps 741 mmHg 75%
    16:00 +4°C° 0.1 mm 4 mps 742 mmHg 77%
    17:00 +4°C° 0.1 mm 3 mps 743 mmHg 79%
    18:00 +4°C° 0.1 mm 2 mps 743 mmHg 81%
    19:00 +4°C° 0 mm 2 mps 743 mmHg 82%
    20:00 +4°C° 0 mm 2 mps 744 mmHg 82%
    21:00 +4°C° 0 mm 2 mps 744 mmHg 83%
    22:00 +4°C° 0 mm 2 mps 744 mmHg 82%
    23:00 +3°C° 0 mm 2 mps 744 mmHg 81%

    14 December, Friday

    Time Temperature Precipitation Wind Pressure Humidity
    00:00 +3°C° 0 mm 2 mps 745 mmHg 80%
    01:00 +4°C° 0 mm 1 mps 745 mmHg 79%
    02:00 +4°C° 0 mm 1 mps 745 mmHg 77%
    03:00 +3°C° 0 mm 1 mps 745 mmHg 76%
    04:00 +3°C° 0 mm 1 mps 745 mmHg 75%
    05:00 +3°C° 0 mm 1 mps 745 mmHg 74%
    06:00 +3°C° 0 mm 1 mps 744 mmHg 73%
    07:00 +3°C° 0 mm 1 mps 745 mmHg 72%
    08:00 +4°C° 0 mm 1 mps 745 mmHg 70%
    09:00 +4°C° 0 mm 1 mps 745 mmHg 69%
    10:00 +5°C° 0 mm 1 mps 745 mmHg 67%
    11:00 +6°C° 0 mm 1 mps 744 mmHg 65%
    12:00 +6°C° 0 mm 1 mps 744 mmHg 63%
    13:00 +6°C° 0 mm 1 mps 744 mmHg 63%
    14:00 +7°C° 0 mm 1 mps 744 mmHg 63%
    15:00 +7°C° 0 mm 1 mps 745 mmHg 63%
    16:00 +6°C° 0 mm 1 mps 745 mmHg 67%
    17:00 +5°C° 0 mm 1 mps 745 mmHg 71%
    18:00 +4°C° 0 mm 1 mps 746 mmHg 74%
    19:00 +4°C° 0 mm 1 mps 746 mmHg 75%
    20:00 +4°C° 0 mm 1 mps 746 mmHg 75%
    21:00 +3°C° 0 mm 1 mps 746 mmHg 75%
    22:00 +3°C° 0 mm 1 mps 746 mmHg 74%
    23:00 +3°C° 0 mm 1 mps 746 mmHg 73%

    15 December, Saturday

    Time Temperature Precipitation Wind Pressure Humidity
    00:00 +3°C° 0 mm 1 mps 746 mmHg 72%
    01:00 +3°C° 0 mm 1 mps 746 mmHg 71%
    02:00 +3°C° 0 mm 1 mps 746 mmHg 70%
    03:00 +2°C° 0 mm 1 mps 746 mmHg 69%
    04:00 +2°C° 0 mm 1 mps 746 mmHg 67%
    05:00 +2°C° 0 mm 1 mps 746 mmHg 65%
    06:00 +2°C° 0 mm 1 mps 746 mmHg 63%
    07:00 +3°C° 0 mm 1 mps 746 mmHg 59%
    08:00 +4°C° 0 mm 1 mps 747 mmHg 55%
    09:00 +4°C° 0 mm 1 mps 747 mmHg 52%
    10:00 +5°C° 0 mm 1 mps 746 mmHg 49%
    11:00 +6°C° 0 mm 1 mps 746 mmHg 45%
    12:00 +8°C° 0 mm 1 mps 746 mmHg 42%
    13:00 +7°C° 0 mm 2 mps 746 mmHg 46%
    14:00 +6°C° 0 mm 2 mps 746 mmHg 51%
    15:00 +6°C° 0 mm 2 mps 746 mmHg 55%
    16:00 +5°C° 0 mm 2 mps 747 mmHg 62%
    17:00 +5°C° 0 mm 1 mps 747 mmHg 69%
    18:00 +4°C° 0 mm 1 mps 748 mmHg 75%
    19:00 +4°C° 0 mm 1 mps 748 mmHg 77%
    20:00 +4°C° 0 mm 1 mps 748 mmHg 80%
    21:00 +3°C° 0 mm 1 mps 748 mmHg 82%
    22:00 +3°C° 0 mm 1 mps 749 mmHg 83%
    23:00 +3°C° 0 mm 1 mps 749 mmHg 84%
    Show more